Terug naar catalogus

STARLINK-11692

ActiefCommunicatieVLEO
NORAD 64381·PAYLOAD·🇺🇸 United States

Gelanceerd Jun 13, 2025 vanaf Cape Canaveral Space Force Station

Loading…

Volgende Passages (komende 24 uur)

TLE

VersSource: CelesTrak SupGP

Epoch: Sep 15, 2026, 02:46 UTC

1 64381C 25127M   26258.11576389 -.00108770  00000+0 -84450-3 0  2588
2 64381  43.0011  22.6428 0001711 272.5077 143.9660 15.70901175    13

Volg STARLINK-11692 in realtime met AllMySat

Download on the App Store